[[{"header":{"parameterUnit":"m.s-1","parameterCategory":1,"la1":30.2991,"la2":30.254,"lo1":-89.0895,"lo2":-89.0444,"dx":0.0017,"dy":0.0017,"nx":28,"ny":28,"refTime":"2022-11-07T09:00:00:Z","depth":0,"parameterNumber":2,"parameterNumberName":"U-component_of_WINDS"},"data":[0,0,0,0,0,0,0,0,0,0,0,0,0,0,0,0,0,0,0,0,0,0,0,0,0,0,0,0,0,0,0,0,0,0,0,0,0,0,0,0,0,0,0,0,0,0,0,0,0,0,0,0,0,0,0,0,0,0,-0.0563,-0.0564,0,-0.0624,-0.0625,-0.0625,-0.0658,-0.0658,-0.0658,-0.0658,-0.0721,-0.0723,-0.0725,0,0,0,0,0,0,0,0,0,0,0,0,0,-0.0476,-0.0477,-0.0563,-0.0564,-0.0565,-0.0624,-0.0625,-0.0626,-0.0658,-0.0658,-0.0658,-0.0658,-0.0721,-0.0723,-0.0725,0,0,0,0,0,0,0,0,0,0,0,0,0,-0.0523,-0.0478,-0.0563,-0.0588,-0.0591,-0.0624,-0.0625,-0.0626,-0.0658,-0.0658,-0.0658,-0.0658,-0.072,-0.0723,-0.0725,-0.0739,0,0,-0.0733,-0.0734,0,0,0,0,0,0,0,0,-0.052,-0.0526,-0.0584,-0.0586,-0.0589,-0.0633,-0.0617,-0.0664,-0.0658,-0.0632,-0.0658,-0.0658,-0.0692,-0.0697,-0.0708,-0.0742,-0.0744,-0.0733,-0.0734,-0.0735,-0.0736,0,0,0,0,0,0,0,-0.0517,-0.0524,-0.0587,-0.0584,-0.0588,-0.0596,-0.0603,-0.0626,-0.0661,-0.0635,-0.0637,-0.0644,-0.0694,-0.0706,-0.071,-0.0745,-0.0733,-0.0735,-0.0736,-0.0737,-0.0792,-0.0792,0,0,0,0,0,0,-0.051,-0.0521,-0.0585,-0.0589,-0.0554,-0.0598,-0.0605,-0.0619,-0.0661,-0.0667,-0.0644,-0.0645,-0.0702,-0.0707,-0.0712,-0.0731,-0.0735,-0.0738,-0.0739,-0.0792,-0.0792,-0.0792,0,0,0,0,0,0,-0.0508,-0.0515,-0.0583,-0.0556,-0.0565,-0.0599,-0.0614,-0.062,-0.0632,-0.0668,-0.0674,-0.0649,-0.0702,-0.0709,-0.0732,-0.0734,-0.0739,-0.0741,-0.0792,-0.0792,-0.0792,-0.0768,0,0,0,0,0,0,-0.0505,-0.0514,-0.052,-0.0556,-0.0566,-0.0601,-0.0615,-0.0621,-0.0636,-0.0639,-0.0675,-0.0681,-0.0702,-0.0728,-0.0734,-0.0737,-0.0743,-0.0792,-0.0792,-0.0792,-0.0769,-0.0767,-0.0766,0,0,0,0,0,-0.0502,-0.0511,-0.052,-0.0527,-0.0574,-0.0601,-0.0607,-0.0632,-0.0636,-0.0642,-0.0665,-0.068,-0.0732,-0.073,-0.0737,-0.0741,-0.0792,-0.0792,-0.0792,-0.0769,-0.0767,-0.0766,0,0,0,0,0,0,-0.0475,-0.0516,-0.0526,-0.0547,-0.057,-0.0606,-0.0615,-0.0629,-0.0651,-0.0653,-0.0682,-0.069,-0.071,-0.0728,-0.0725,-0.0756,-0.0764,-0.0765,-0.0744,-0.0742,-0.0741,-0.0736,-0.0745,0,0,0,0,0,-0.0471,-0.049,-0.0525,-0.054,-0.0551,-0.058,-0.0593,-0.061,-0.0635,-0.0645,-0.067,-0.0694,-0.0716,-0.073,-0.0752,-0.0771,-0.0779,-0.0777,-0.0775,-0.0774,-0.0775,-0.0786,-0.0786,-0.0792,-0.0792,-0.0792,0,0,-0.0464,-0.0489,-0.0499,-0.0535,-0.0555,-0.0573,-0.0589,-0.0608,-0.0622,-0.0649,-0.0672,-0.069,-0.0719,-0.074,-0.075,-0.0755,-0.0775,-0.0774,-0.0773,-0.0775,-0.0786,-0.0786,-0.0785,-0.0792,-0.0792,-0.0792,0,0,-0.0461,-0.0481,-0.0496,-0.0515,-0.0545,-0.0564,-0.0568,-0.0602,-0.0615,-0.0638,-0.0658,-0.0675,-0.0713,-0.0732,-0.0747,-0.075,-0.0765,-0.0756,-0.0749,-0.0759,-0.0759,-0.0759,-0.076,-0.076,-0.0757,-0.0757,-0.0757,0,-0.0449,-0.0478,-0.0502,-0.052,-0.0535,-0.0559,-0.0574,-0.0591,-0.0627,-0.0637,-0.0642,-0.0688,-0.071,-0.0735,-0.0736,-0.0747,-0.0752,-0.0753,-0.0757,-0.0757,-0.0757,-0.0759,-0.0759,-0.0756,-0.0756,-0.0756,-0.0756,0,-0.0461,-0.0481,-0.0489,-0.0522,-0.0538,-0.0554,-0.0581,-0.0594,-0.0609,-0.0628,-0.0651,-0.0677,-0.0705,-0.0712,-0.0727,-0.074,-0.0742,-0.0751,-0.076,-0.0755,-0.0757,-0.0758,-0.0754,-0.0755,-0.0755,-0.0756,0,0,-0.0444,-0.0489,-0.0492,-0.0507,-0.0541,-0.0556,-0.0574,-0.06,-0.0611,-0.0634,-0.065,-0.068,-0.0688,-0.0705,-0.0722,-0.0731,-0.0732,-0.074,-0.0741,-0.0738,-0.0748,-0.0741,-0.0742,-0.0741,-0.0742,-0.0742,-0.0746,0,-0.0446,-0.0478,-0.05,-0.0523,-0.0542,-0.0564,-0.0579,-0.0601,-0.0619,-0.0637,-0.0657,-0.0678,-0.0688,-0.0698,-0.0708,-0.073,-0.0735,-0.073,-0.0757,-0.0757,-0.075,-0.0743,-0.0736,-0.0738,-0.0747,-0.0747,-0.0747,0,-0.0453,-0.0475,-0.05,-0.0531,-0.054,-0.0553,-0.0578,-0.0595,-0.0621,-0.0634,-0.0652,-0.0669,-0.0688,-0.0694,-0.0721,-0.0717,-0.0729,-0.0741,-0.0742,-0.0746,-0.0752,-0.0747,-0.074,-0.074,-0.0748,-0.0748,-0.0748,0,-0.0439,-0.0474,-0.0494,-0.0506,-0.0543,-0.0551,-0.0567,-0.0593,-0.0607,-0.0629,-0.0639,-0.0663,-0.0677,-0.0695,-0.0719,-0.0721,-0.0743,-0.0751,-0.0754,-0.0754,-0.0759,-0.0759,-0.0754,-0.0765,-0.0765,-0.0765,-0.0765,0,-0.0439,-0.0454,-0.0488,-0.05,-0.0517,-0.0541,-0.0557,-0.0575,-0.0597,-0.0613,-0.0634,-0.0648,-0.0678,-0.0696,-0.0714,-0.0734,-0.074,-0.0751,-0.0756,-0.0749,-0.0748,-0.0758,-0.0759,-0.0765,-0.0765,-0.0765,-0.0765,0,-0.0426,-0.0449,-0.0472,-0.0505,-0.0513,-0.0524,-0.0552,-0.0565,-0.0583,-0.0603,-0.0609,-0.0638,-0.0661,-0.0685,-0.0716,-0.0729,-0.0747,-0.0754,-0.0739,-0.0741,-0.0744,-0.0743,-0.0746,-0.0748,-0.0757,-0.0757,-0.0757,0,-0.0425,-0.0437,-0.047,-0.0482,-0.0497,-0.0516,-0.0531,-0.0555,-0.0569,-0.0599,-0.0608,-0.0632,-0.0652,-0.0687,-0.0711,-0.0734,-0.0742,-0.0741,-0.0746,-0.0739,-0.0743,-0.0742,-0.0743,-0.074,-0.074,-0.074,-0.074,0,-0.0422,-0.0432,-0.0452,-0.0475,-0.0492,-0.0512,-0.0532,-0.0541,-0.057,-0.0584,-0.0607,-0.0623,-0.0654,-0.0677,-0.0704,-0.072,-0.0735,-0.0738,-0.074,-0.0734,-0.0725,-0.0731,-0.0736,-0.0738,-0.0738,-0.0738,-0.0739,-0.0739,-0.0415,-0.0426,-0.0451,-0.0473,-0.049,-0.0509,-0.0522,-0.0542,-0.0561,-0.0588,-0.0601,-0.0624,-0.0649,-0.0686,-0.0702,-0.072,-0.0725,-0.0727,-0.0728,-0.0729,-0.0727,-0.0721,-0.0725,-0.0725,-0.0725,-0.0725,-0.0725,0,-0.0413,-0.043,-0.0449,-0.0477,-0.0493,-0.0504,-0.0528,-0.0541,-0.0561,-0.0582,-0.0601,-0.0628,-0.065,-0.0675,-0.0699,-0.0709,-0.0717,-0.0715,-0.0715,-0.0718,-0.0722,-0.0718,-0.0708,-0.0708,-0.0708,-0.0708,-0.0708,-0.0708,-0.0413,-0.0433,-0.0446,-0.0475,-0.0492,-0.0514,-0.0526,-0.0544,-0.0561,-0.0589,-0.0607,-0.0624,-0.0647,-0.0672,-0.0694,-0.0701,-0.0709,-0.0705,-0.0714,-0.0717,-0.0718,-0.072,-0.0716,-0.0707,-0.0707,-0.0709,-0.0709,-0.0709]},{"header":{"parameterUnit":"m.s-1","parameterCategory":1,"la1":30.2991,"la2":30.254,"lo1":-89.0895,"lo2":-89.0444,"dx":0.0017,"dy":0.0017,"nx":28,"ny":28,"refTime":"2022-11-07T09:00:00:Z","depth":0,"parameterNumber":3,"parameterNumberName":"V-component_of_WINDS"},"data":[0,0,0,0,0,0,0,0,0,0,0,0,0,0,0,0,0,0,0,0,0,0,0,0,0,0,0,0,0,0,0,0,0,0,0,0,0,0,0,0,0,0,0,0,0,0,0,0,0,0,0,0,0,0,0,0,0,0,-1.9876,-1.9877,0,-1.9954,-1.9954,-1.9955,-1.9968,-1.9967,-1.9967,-1.9966,-2.0043,-2.0046,-2.0048,0,0,0,0,0,0,0,0,0,0,0,0,0,-1.9737,-1.9739,-1.9876,-1.9877,-1.9878,-1.9953,-1.9954,-1.9956,-1.9968,-1.9967,-1.9966,-1.9966,-2.0042,-2.0045,-2.0049,0,0,0,0,0,0,0,0,0,0,0,0,0,-1.9804,-1.974,-1.9876,-1.9893,-1.9895,-1.9953,-1.9955,-1.9956,-1.9968,-1.9967,-1.9966,-1.9965,-2.0041,-2.0045,-2.0049,-2.0094,0,0,-2.0061,-2.0063,0,0,0,0,0,0,0,0,-1.98,-1.9809,-1.989,-1.9892,-1.9895,-1.995,-1.9934,-2.0002,-1.9968,-1.994,-1.9966,-1.9965,-2.0013,-2.0019,-2.0036,-2.0098,-2.0101,-2.0062,-2.0064,-2.0066,-2.0067,0,0,0,0,0,0,0,-1.9795,-1.9806,-1.9906,-1.9891,-1.9894,-1.9897,-1.9905,-1.9947,-1.9981,-1.9943,-1.9944,-1.9953,-2.0014,-2.0032,-2.0038,-2.0102,-2.0062,-2.0065,-2.0068,-2.0069,-2.0205,-2.0206,0,0,0,0,0,0,-1.9788,-1.9802,-1.9904,-1.9909,-1.9844,-1.99,-1.9909,-1.9933,-1.9981,-1.9987,-1.9954,-1.9953,-2.0026,-2.0033,-2.004,-2.0097,-2.0066,-2.007,-2.0072,-2.0204,-2.0206,-2.0207,0,0,0,0,0,0,-1.9785,-1.9797,-1.9901,-1.9856,-1.9869,-1.9903,-1.993,-1.9935,-1.9953,-1.9989,-1.9995,-1.9966,-2.0025,-2.0035,-2.0081,-2.0099,-2.0071,-2.0075,-2.0203,-2.0205,-2.0206,-2.0209,0,0,0,0,0,0,-1.9781,-1.9796,-1.9813,-1.9856,-1.9871,-1.9941,-1.9931,-1.9938,-1.996,-1.9961,-2.0002,-2.0008,-2.0025,-2.0075,-2.0085,-2.0105,-2.0078,-2.0201,-2.0204,-2.0206,-2.0207,-2.0211,-2.0214,0,0,0,0,0,-1.9776,-1.9811,-1.9814,-1.9827,-1.9895,-1.9942,-1.995,-1.997,-1.9962,-1.998,-2.0003,-2.0007,-2.0096,-2.008,-2.0091,-2.0112,-2.02,-2.0203,-2.0205,-2.0206,-2.021,-2.0213,0,0,0,0,0,0,-1.9768,-1.9816,-1.9821,-1.9871,-1.9902,-1.9944,-1.9967,-1.9973,-2.0007,-2.0006,-2.0028,-2.0037,-2.0082,-2.0102,-2.0082,-2.0158,-2.0147,-2.0152,-2.0144,-2.0148,-2.0151,-2.0145,-2.0082,0,0,0,0,0,-1.9773,-1.9807,-1.9847,-1.9887,-1.9903,-1.9932,-1.9953,-1.9966,-1.9999,-2.0012,-2.0038,-2.007,-2.0105,-2.0127,-2.0162,-2.021,-2.022,-2.0231,-2.0234,-2.0236,-2.024,-2.0267,-2.0273,-2.0216,-2.0216,-2.0216,0,0,-1.9782,-1.9812,-1.9833,-1.9887,-1.9912,-1.9948,-1.9943,-1.998,-2.0007,-2.0017,-2.0063,-2.0083,-2.012,-2.0168,-2.019,-2.0185,-2.0258,-2.0239,-2.0241,-2.0244,-2.0271,-2.0276,-2.0281,-2.0218,-2.0217,-2.0217,0,0,-1.9816,-1.9843,-1.9879,-1.9905,-1.9945,-1.9964,-1.9973,-2.0014,-2.0028,-2.0074,-2.0083,-2.0114,-2.0174,-2.02,-2.0221,-2.0266,-2.0271,-2.0276,-2.0292,-2.0319,-2.0323,-2.0327,-2.0343,-2.0349,-2.028,-2.028,-2.028,0,-1.9822,-1.9876,-1.9897,-1.9934,-1.9958,-1.997,-2.0007,-2.0031,-2.0079,-2.0095,-2.0089,-2.0166,-2.0191,-2.0245,-2.0256,-2.0272,-2.0283,-2.0272,-2.0321,-2.0325,-2.0329,-2.0345,-2.0351,-2.0281,-2.0281,-2.0281,-2.0281,0,-1.9881,-1.9918,-1.9943,-1.999,-2.0017,-2.0053,-2.008,-2.0104,-2.0114,-2.0134,-2.0181,-2.0212,-2.0253,-2.0267,-2.0277,-2.0322,-2.0318,-2.0317,-2.0306,-2.0335,-2.035,-2.0356,-2.0282,-2.0281,-2.0281,-2.0281,0,0,-1.9912,-1.9972,-1.998,-2.0002,-2.0047,-2.0076,-2.0113,-2.0154,-2.0175,-2.0207,-2.0239,-2.029,-2.0289,-2.0313,-2.0326,-2.0349,-2.0383,-2.0345,-2.0346,-2.0351,-2.0436,-2.0437,-2.0443,-2.0387,-2.0388,-2.0389,-2.0433,0,-1.9952,-2.002,-2.004,-2.0097,-2.0132,-2.0144,-2.0177,-2.0208,-2.0227,-2.0259,-2.0281,-2.0317,-2.0313,-2.0327,-2.0351,-2.0374,-2.04,-2.0371,-2.0416,-2.0417,-2.0407,-2.0451,-2.0452,-2.0492,-2.0439,-2.044,-2.044,0,-2.0007,-2.0042,-2.0103,-2.0144,-2.0159,-2.0188,-2.0228,-2.0258,-2.0293,-2.0306,-2.0333,-2.0344,-2.0383,-2.0371,-2.0425,-2.0405,-2.0424,-2.0438,-2.044,-2.0445,-2.0431,-2.0457,-2.0505,-2.0511,-2.045,-2.0449,-2.0448,0,-2.0024,-2.0086,-2.0131,-2.0149,-2.0198,-2.0218,-2.0239,-2.0273,-2.0297,-2.0331,-2.0347,-2.0385,-2.0406,-2.0435,-2.0456,-2.0445,-2.0508,-2.0497,-2.052,-2.0519,-2.0532,-2.0531,-2.0584,-2.0545,-2.0545,-2.0545,-2.0544,0,-2.0066,-2.0102,-2.0139,-2.0166,-2.0207,-2.023,-2.0271,-2.0292,-2.0323,-2.0354,-2.0367,-2.0396,-2.0423,-2.0455,-2.0472,-2.0514,-2.0523,-2.0534,-2.0538,-2.0533,-2.0532,-2.0546,-2.0544,-2.0546,-2.0546,-2.0546,-2.0545,0,-2.0091,-2.0117,-2.0167,-2.0209,-2.0221,-2.0249,-2.0286,-2.0312,-2.0333,-2.0373,-2.0383,-2.0415,-2.0454,-2.0478,-2.0528,-2.0539,-2.0586,-2.0589,-2.0574,-2.0576,-2.0597,-2.0595,-2.0661,-2.0671,-2.0625,-2.0625,-2.0626,0,-2.0116,-2.0145,-2.0191,-2.0213,-2.0235,-2.0271,-2.0295,-2.0319,-2.0344,-2.0387,-2.0408,-2.0449,-2.0482,-2.0544,-2.0571,-2.0609,-2.0613,-2.0633,-2.0618,-2.0612,-2.0613,-2.0611,-2.0614,-2.0636,-2.0636,-2.0636,-2.0636,0,-2.0158,-2.017,-2.0205,-2.0245,-2.0274,-2.0306,-2.0338,-2.0356,-2.0385,-2.0412,-2.0453,-2.0479,-2.053,-2.057,-2.061,-2.0631,-2.0639,-2.0641,-2.0648,-2.0643,-2.0634,-2.0639,-2.0581,-2.0639,-2.0639,-2.0639,-2.0639,-2.0639,-2.0184,-2.021,-2.0247,-2.0286,-2.0313,-2.0343,-2.0371,-2.0395,-2.043,-2.0474,-2.0485,-2.0528,-2.0563,-2.0618,-2.064,-2.0674,-2.067,-2.0681,-2.0683,-2.0686,-2.0686,-2.0629,-2.0681,-2.0681,-2.0681,-2.0681,-2.0681,0,-2.0227,-2.0251,-2.0287,-2.0332,-2.0363,-2.0368,-2.0404,-2.0429,-2.0467,-2.0499,-2.0532,-2.0579,-2.0618,-2.0648,-2.0688,-2.0709,-2.0713,-2.0718,-2.0717,-2.0722,-2.0686,-2.0676,-2.0714,-2.0714,-2.0714,-2.0714,-2.0714,-2.0714,-2.0252,-2.0297,-2.0313,-2.0372,-2.0396,-2.0438,-2.0459,-2.0486,-2.0512,-2.0564,-2.0597,-2.0617,-2.0649,-2.0691,-2.0727,-2.0735,-2.0749,-2.0753,-2.0762,-2.0728,-2.0724,-2.0721,-2.0712,-2.0756,-2.0756,-2.0795,-2.0795,-2.0795]}]]